| time (UTC) | temp F | wind direction | speed MPH | gust MPH | rain 1hr in | rain 24hr in | rain mn in | humidity % | barometer mb |
| 20260901040008 | 66 | 204 | 3.0 | 6.0 | 0.00 | 0.00 | 0.00 | 64 | 1009.1 |
| 20260901034518 | 67 | 211 | 0.0 | 5.0 | 0.00 | 0.00 | 0.00 | 62 | 1008.7 |
| 20260901033012 | 68 | 210 | 0.0 | 6.0 | 0.00 | 0.00 | 0.00 | 59 | 1008.6 |
| 20260901031520 | 69 | 211 | 0.0 | 3.0 | 0.00 | 0.00 | 0.00 | 56 | 1008.3 |
| 20260901030007 | 71 | 236 | 0.0 | 6.0 | 0.00 | 0.00 | 0.00 | 53 | 1008.2 |
| 20260901024506 | 72 | 265 | 0.0 | 5.0 | 0.00 | 0.00 | 0.00 | 52 | 1008.0 |
| 20260901023007 | 74 | 323 | 0.0 | 6.0 | 0.00 | 0.00 | 0.00 | 50 | 1007.9 |
| 20260901021505 | 76 | 211 | 0.0 | 6.0 | 0.00 | 0.00 | 0.00 | 48 | 1007.8 |
| 20260901020004 | 78 | 359 | 0.0 | 3.0 | 0.00 | 0.00 | 0.00 | 45 | 1007.7 |
| 20260901014504 | 80 | 275 | 0.0 | 5.0 | 0.00 | 0.00 | 0.00 | 43 | 1007.5 |
| 20260901013007 | 81 | 210 | 0.0 | 4.0 | 0.00 | 0.00 | 0.00 | 41 | 1007.2 |
| 20260901011503 | 82 | 309 | 0.0 | 1.0 | 0.00 | 0.00 | 0.00 | 40 | 1007.3 |
| 20260901010001 | 84 | 176 | 0.0 | 4.0 | 0.00 | 0.00 | 0.00 | 37 | 1007.4 |
| 20260901004602 | 83 | 245 | 0.0 | 0.0 | 0.00 | 0.00 | 0.00 | 34 | 1007.5 |
| 20260901003100 | 83 | 245 | 0.0 | 2.0 | 0.00 | 0.00 | 0.00 | 34 | 1007.5 |
| 20260901001600 | 83 | 284 | 0.0 | 0.0 | 0.00 | 0.00 | 0.00 | 35 | 1007.6 |
| 20260901000058 | 84 | 190 | 0.0 | 5.0 | 0.00 | 0.00 | 0.00 | 33 | 1007.6 |
| 20260831234601 | 85 | 352 | 0.0 | 0.0 | 0.00 | 0.00 | 0.00 | 32 | 1007.8 |
| 20260831233056 | 84 | 256 | 0.0 | 1.0 | 0.00 | 0.00 | 0.00 | 33 | 1007.7 |
| 20260831231554 | 84 | 356 | 0.0 | 3.0 | 0.00 | 0.00 | 0.00 | 34 | 1007.8 |
| 20260831230051 | 84 | 246 | 0.0 | 3.0 | 0.00 | 0.00 | 0.00 | 35 | 1007.9 |
| 20260831224547 | 82 | 341 | 0.0 | 5.0 | 0.00 | 0.00 | 0.00 | 36 | 1008.1 |
| 20260831223049 | 81 | 278 | 2.0 | 7.0 | 0.00 | 0.00 | 0.00 | 37 | 1008.2 |
| 20260831221550 | 80 | 151 | 0.0 | 6.0 | 0.00 | 0.00 | 0.00 | 39 | 1008.2 |
| 20260831220040 | 80 | 331 | 2.0 | 8.0 | 0.00 | 0.00 | 0.00 | 41 | 1008.2 |
| 20260831214539 | 79 | 309 | 1.0 | 7.0 | 0.00 | 0.00 | 0.00 | 43 | 1008.5 |
| 20260831213035 | 79 | 360 | 1.0 | 6.0 | 0.00 | 0.00 | 0.00 | 43 | 1008.8 |
| 20260831211533 | 78 | 39 | 0.0 | 4.0 | 0.00 | 0.00 | 0.00 | 44 | 1008.8 |
| 20260831210027 | 77 | 325 | 0.0 | 1.0 | 0.00 | 0.00 | 0.00 | 45 | 1009.0 |
| 20260831204524 | 76 | 173 | 0.0 | 4.0 | 0.00 | 0.00 | 0.00 | 47 | 1009.1 |
| 20260831203020 | 75 | 140 | 0.0 | 3.0 | 0.00 | 0.00 | 0.00 | 48 | 1009.3 |
| 20260831201517 | 74 | 8 | 1.0 | 5.0 | 0.00 | 0.00 | 0.00 | 48 | 1009.6 |
| 20260831200018 | 72 | 309 | 1.0 | 4.0 | 0.00 | 0.00 | 0.00 | 51 | 1009.8 |
| 20260831194512 | 72 | 4 | 1.0 | 6.0 | 0.00 | 0.00 | 0.00 | 51 | 1010.0 |
| 20260831193004 | 71 | 1 | 1.0 | 4.0 | 0.00 | 0.00 | 0.00 | 54 | 1010.1 |
| 20260831191502 | 70 | 359 | 0.0 | 5.0 | 0.00 | 0.00 | 0.00 | 54 | 1010.3 |
| 20260831190101 | 70 | 297 | 0.0 | 5.0 | 0.00 | 0.00 | 0.00 | 54 | 1010.5 |
| 20260831184556 | 68 | 9 | 1.0 | 5.0 | 0.00 | 0.00 | 0.00 | 57 | 1010.7 |
| 20260831183051 | 68 | 274 | 0.0 | 4.0 | 0.00 | 0.00 | 0.00 | 58 | 1010.8 |
| 20260831181553 | 67 | 10 | 0.0 | 5.0 | 0.00 | 0.00 | 0.00 | 61 | 1010.9 |
| 20260831180045 | 66 | 23 | 0.0 | 5.0 | 0.00 | 0.00 | 0.00 | 61 | 1010.9 |
| 20260831174549 | 65 | 309 | 2.0 | 7.0 | 0.00 | 0.00 | 0.00 | 63 | 1011.1 |
| 20260831173039 | 64 | 67 | 0.0 | 5.0 | 0.00 | 0.00 | 0.00 | 66 | 1011.3 |
| 20260831171535 | 63 | 41 | 0.0 | 5.0 | 0.00 | 0.00 | 0.00 | 67 | 1011.4 |
| 20260831170038 | 62 | 325 | 1.0 | 5.0 | 0.00 | 0.00 | 0.00 | 68 | 1011.5 |
| 20260831164528 | 61 | 309 | 0.0 | 5.0 | 0.00 | 0.00 | 0.00 | 69 | 1011.7 |
| 20260831163025 | 61 | 360 | 0.0 | 3.0 | 0.00 | 0.00 | 0.00 | 72 | 1011.9 |
| 20260831161525 | 59 | 330 | 1.0 | 5.0 | 0.00 | 0.00 | 0.00 | 73 | 1012.0 |
| 20260831160025 | 59 | 354 | 0.0 | 4.0 | 0.00 | 0.00 | 0.00 | 75 | 1011.9 |
| 20260831154523 | 58 | 355 | 1.0 | 5.0 | 0.00 | 0.00 | 0.00 | 76 | 1012.0 |
| 20260831153023 | 58 | 3 | 0.0 | 4.0 | 0.00 | 0.00 | 0.00 | 77 | 1012.0 |
| 20260831151522 | 57 | 359 | 0.0 | 4.0 | 0.00 | 0.00 | 0.00 | 79 | 1012.1 |
| 20260831150021 | 56 | 1 | 1.0 | 6.0 | 0.00 | 0.00 | 0.00 | 80 | 1012.0 |
| 20260831144521 | 55 | 347 | 0.0 | 1.0 | 0.00 | 0.00 | 0.00 | 81 | 1012.1 |
| 20260831143021 | 54 | 17 | 0.0 | 4.0 | 0.00 | 0.00 | 0.00 | 82 | 1012.0 |
| 20260831141520 | 54 | 333 | 0.0 | 0.0 | 0.00 | 0.00 | 0.00 | 82 | 1011.9 |
| 20260831140032 | 54 | 333 | 0.0 | 0.0 | 0.00 | 0.00 | 0.00 | 81 | 1012.0 |
| 20260831134517 | 54 | 333 | 0.0 | 0.0 | 0.00 | 0.00 | 0.00 | 81 | 1012.0 |
| 20260831133016 | 54 | 333 | 0.0 | 0.0 | 0.00 | 0.00 | 0.00 | 81 | 1012.1 |
| 20260831131515 | 54 | 333 | 0.0 | 1.0 | 0.00 | 0.00 | 0.00 | 81 | 1012.2 |
| 20260831130016 | 55 | 360 | 0.0 | 1.0 | 0.00 | 0.00 | 0.00 | 81 | 1012.2 |
| 20260831124512 | 55 | 328 | 0.0 | 0.0 | 0.00 | 0.00 | 0.00 | 80 | 1012.3 |
| 20260831123009 | 55 | 336 | 0.0 | 0.0 | 0.00 | 0.00 | 0.00 | 79 | 1012.3 |
| 20260831121508 | 55 | 336 | 0.0 | 1.0 | 0.00 | 0.00 | 0.00 | 79 | 1012.4 |
| 20260831120008 | 56 | 360 | 0.0 | 1.0 | 0.00 | 0.00 | 0.00 | 79 | 1012.4 |
| 20260831114503 | 56 | 342 | 0.0 | 0.0 | 0.00 | 0.00 | 0.00 | 78 | 1012.6 |
| 20260831113002 | 56 | 328 | 0.0 | 0.0 | 0.00 | 0.00 | 0.00 | 78 | 1012.6 |
| 20260831111601 | 56 | 328 | 0.0 | 1.0 | 0.00 | 0.00 | 0.00 | 77 | 1012.7 |
| 20260831104605 | 57 | 319 | 0.0 | 0.0 | 0.00 | 0.00 | 0.00 | 76 | 1012.7 |
| 20260831103055 | 57 | 314 | 0.0 | 3.0 | 0.00 | 0.00 | 0.00 | 76 | 1012.7 |
| 20260831101602 | 57 | 328 | 0.0 | 0.0 | 0.00 | 0.00 | 0.00 | 75 | 1012.9 |
| 20260831100057 | 57 | 317 | 0.0 | 2.0 | 0.00 | 0.00 | 0.00 | 75 | 1013.0 |
| 20260831094550 | 58 | 359 | 0.0 | 3.0 | 0.00 | 0.00 | 0.00 | 74 | 1013.2 |
| 20260831093053 | 58 | 1 | 0.0 | 1.0 | 0.00 | 0.00 | 0.00 | 74 | 1013.3 |
| 20260831091546 | 58 | 330 | 0.0 | 2.0 | 0.00 | 0.00 | 0.00 | 73 | 1013.4 |
| 20260831090054 | 58 | 324 | 0.0 | 5.0 | 0.00 | 0.00 | 0.00 | 73 | 1013.6 |
| 20260831084552 | 59 | 340 | 0.0 | 1.0 | 0.00 | 0.00 | 0.00 | 72 | 1013.7 |
| 20260831083039 | 59 | 360 | 0.0 | 4.0 | 0.00 | 0.00 | 0.00 | 71 | 1013.8 |
| 20260831081541 | 60 | 324 | 0.0 | 2.0 | 0.00 | 0.00 | 0.00 | 71 | 1013.9 |
| 20260831080039 | 60 | 324 | 0.0 | 4.0 | 0.00 | 0.00 | 0.00 | 70 | 1014.0 |
| 20260831074533 | 60 | 317 | 0.0 | 6.0 | 0.00 | 0.00 | 0.00 | 70 | 1014.2 |
| 20260831073032 | 60 | 328 | 1.0 | 5.0 | 0.00 | 0.00 | 0.00 | 69 | 1014.2 |
| 20260831071529 | 60 | 320 | 0.0 | 3.0 | 0.00 | 0.00 | 0.00 | 69 | 1014.3 |
| 20260831070029 | 61 | 354 | 0.0 | 1.0 | 0.00 | 0.00 | 0.00 | 68 | 1014.5 |
| 20260831064526 | 61 | 323 | 0.0 | 3.0 | 0.00 | 0.00 | 0.00 | 67 | 1014.7 |
| 20260831063025 | 61 | 8 | 0.0 | 2.0 | 0.00 | 0.00 | 0.00 | 65 | 1014.8 |
| 20260831061524 | 62 | 1 | 0.0 | 5.0 | 0.00 | 0.00 | 0.00 | 64 | 1014.9 |
| 20260831060021 | 62 | 1 | 1.0 | 6.0 | 0.00 | 0.00 | 0.00 | 63 | 1015.1 |
| 20260831054521 | 63 | 359 | 0.0 | 7.0 | 0.00 | 0.00 | 0.00 | 61 | 1015.0 |
| 20260831053020 | 64 | 357 | 2.0 | 8.0 | 0.00 | 0.00 | 0.00 | 61 | 1015.2 |
| 20260831051532 | 64 | 345 | 2.0 | 7.0 | 0.00 | 0.00 | 0.00 | 60 | 1015.4 |
| 20260831050017 | 65 | 11 | 4.0 | 9.0 | 0.00 | 0.00 | 0.00 | 59 | 1015.4 |
| 20260831044521 | 65 | 2 | 1.0 | 8.0 | 0.00 | 0.00 | 0.00 | 58 | 1015.5 |
| 20260831043016 | 66 | 13 | 2.0 | 9.0 | 0.00 | 0.00 | 0.00 | 57 | 1015.5 |
| 20260831041515 | 66 | 2 | 4.0 | 10.0 | 0.00 | 0.00 | 0.00 | 56 | 1015.5 |